Jogging des Gaulois - Tavigny 01/05/2018 - 12,5 Km
Place Nom Prénom Temps Vitesse Allure Place. Cat. Cat.
1 VERHULST EMMANUEL 523 0:53:22 14,1 4:16 1 V1
2 GONRY CHRISTOPHE 575 0:54:08 13,9 4:19 1 S
3 SCHLOUNE NICOLAS 552 0:55:49 13,4 4:27 2 S
4 VINCENT JOANICK 555 0:55:50 13,4 4:28 3 S
5 LEENS PIERRE 423 0:56:06 13,4 4:29 1 V2
6 SON CHARLES 574 0:56:27 13,3 4:31 2 V2
7 JACOB JEAN 526 0:57:15 13,1 4:34 2 V1
8 GROGNARD REGIS 580 0:57:54 13,0 4:37 4 S
9 COLLIGNON PHILIPPE 536 1:00:24 12,4 4:49 3 V2
10 TYCHON JULIEN 543 1:01:21 12,2 4:54 5 S
11 BERTRAND PAULINE 572 1:01:54 12,1 4:57 1 D
12 BERTRAND ALAIN 557 1:01:54 12,1 4:57 4 V2
13 DEFRENNE MIKE 408 1:02:02 12,1 4:57 6 S
14 CLAUDE FABRICE 409 1:02:57 11,9 5:02 7 S
15 WAVREILLE BERTRAND 577 1:03:03 11,9 5:02 8 S
16 CHISOGNE FLORENT 419 1:03:34 11,8 5:05 9 S
17 LOCKMAN GREGORY 537 1:03:49 11,8 5:06 10 S
18 SON KATHLEEN 540 1:04:22 11,6 5:09 2 D
19 DAOUST JEAN-MARIE 522 1:04:25 11,6 5:09 1 V3
20 PIETERS DIRK 541 1:04:46 11,6 5:10 5 V2
21 VANDYCKE IVAN 434 1:05:20 11,5 5:13 3 V1
22 LOCKMAN DENIS 579 1:05:24 11,5 5:13 11 S
23 LAMY ISABELLE 570 1:06:00 11,4 5:16 1 A2
24 TRIBOLET ERIC 562 1:06:11 11,3 5:17 6 V2
25 LEONARD GEOFFREY 531 1:08:44 10,9 5:29 12 S
26 LOUIS SEBASTIEN 425 1:09:07 10,8 5:31 13 S
27 DEWEZ NICOLAS 581 1:09:58 10,7 5:35 14 S
28 DAOUST LINDSAY 542 1:10:16 10,7 5:37 1 A1
29 BASTOGNE SAMUEL 576 1:10:47 10,6 5:39 4 V1
30 BASTOGNE JONATHAN 568 1:10:49 10,6 5:39 15 S
31 LEONARD JULIE 545 1:11:12 10,5 5:41 2 A1
32 TUMSON MARTINE 561 1:11:24 10,5 5:42 2 A2
33 LEONARD CATHY 405 1:12:10 10,4 5:46 3 A2
34 LEEMANS RONNY 578 1:12:19 10,4 5:47 5 V1
35 GLESNER SARAH 566 1:13:54 10,1 5:54 3 D
36 BERNES JEAN-LUC 428 1:13:55 10,1 5:54 7 V2
37 KESER CHRISTINE 530 1:14:22 10,1 5:56 3 A1
38 ADAM PAULINE 546 1:14:38 10,0 5:58 4 D
39 MABOGE FRANCOISE 401 1:14:56 10,0 5:59 4 A2
40 MONFORT LAETITIA 567 1:16:00 9,9 6:04 5 D
41 PAQUAY DELPHINE 440 1:16:43 9,8 6:08 6 D
42 STRAPE ELODIE 443 1:16:43 9,8 6:08 7 D
43 RENSON LOUISE 412 1:18:15 9,6 6:15 8 D
44 HAAN JOELLE 553 1:20:00 9,4 6:24 5 A2
45 BISSOT ISABELLE 560 1:20:20 9,3 6:25 4 A1
46 VOISIN VERONIQUE 406 1:38:57 7,6 7:54 5 A1
47 SCHEUREN MELANIE 410 1:38:57 7,6 7:54 6 A1